American Canyon, CA

6:28 PM PST on December 09, 2016 (GMT -0800)
Napa County

Weather History for KAPC - February, 2014

Change the Weather History Date:

Thursday, February 27, 2014

  Actual Average Record
Temperature  
Mean Temperature 58 °F 51 °F  
Max Temperature 63 °F 62 °F 72 °F (2001)
Min Temperature 52 °F 40 °F 25 °F (2012)
Degree Days  
Heating Degree Days 7    
Month to date heating degree days 367  
Since 1 July heating degree days 2199  
Cooling Degree Days 0    
Month to date cooling degree days 0  
Year to date cooling degree days 0  
Growing Degree Days 6 (Base 50)    
Moisture  
Dew Point 51 °F    
Average Humidity 79    
Maximum Humidity 96    
Minimum Humidity 62    
Precipitation  
Precipitation 0.01 in - 3.28 in (1940)
Month to date precipitation 4.03  
Year to date precipitation 4.11  
Since 1 July precipitation 6.31  
Sea Level Pressure  
Sea Level Pressure 29.77 in    
Wind  
Wind Speed 12 mph (SSW)    
Max Wind Speed 22 mph    
Max Gust Speed 33 mph    
Visibility 9 miles    
Events Rain    
T = Trace of Precipitation, MM = Missing Value Source: NWS Daily Summary

Daily Weather History Graph

Daily Weather History Graph

Search for Another Location

Airport or City:

Trip Planner

Search our weather history database for the weather conditions in past years. The results will help you decide how hot, cold, wet, or windy it might be!

Date:

Astronomy

Feb. 27, 2014 Rise Set
Actual Time 6:43 AM PST 6:00 PM PST
Civil Twilight 6:17 AM PST 6:27 PM PST
Nautical Twilight 5:46 AM PST 6:57 PM PST
Astronomical Twilight 5:15 AM PST 7:28 PM PST
Moon 5:19 AM PST (2/27) 4:33 PM PST (2/27)
Length of Visible Light 12h 09m
Length of Day
11h 16m
Waning Crescent, 3% of the Moon is Illuminated
Feb 27
Waning Crescent
Mar 1
New
Mar 8
First Quarter
Mar 16
Full
Mar 23
Last Quarter

Hourly Weather History & Observations

Time (PST) Temp. Dew Point Humidity Pressure Visibility Wind Dir Wind Speed Gust Speed Precip Events Conditions
12:54 AM 52.0 °F 50.0 °F 93% 29.73 in 10.0 mi SW 9.2 mph - N/A   Scattered Clouds
1:54 AM 55.0 °F 52.0 °F 89% 29.75 in 10.0 mi SW 15.0 mph - 0.00 in Rain Light Rain
2:54 AM 54.0 °F 52.0 °F 93% 29.77 in 10.0 mi SSW 9.2 mph - 0.00 in   Clear
3:54 AM 55.0 °F 52.0 °F 89% 29.76 in 10.0 mi SSW 17.3 mph - N/A   Mostly Cloudy
4:54 AM 55.0 °F 52.0 °F 89% 29.78 in 10.0 mi SSW 15.0 mph - N/A   Mostly Cloudy
5:54 AM 54.0 °F 52.0 °F 93% 29.79 in 9.0 mi SSW 16.1 mph - 0.00 in Rain Light Rain
6:54 AM 54.0 °F 53.1 °F 97% 29.81 in 4.0 mi SSW 19.6 mph - 0.00 in Rain Light Rain
7:19 AM 53.1 °F 52.0 °F 96% 29.84 in 2.5 mi SW 11.5 mph 23.0 mph 0.01 in Rain Light Rain
7:21 AM 53.1 °F 52.0 °F 96% 29.84 in 3.0 mi SW 12.7 mph - 0.01 in Rain Light Rain
7:45 AM 54.0 °F 52.0 °F 93% 29.86 in 10.0 mi South 8.1 mph - 0.01 in   Overcast
7:54 AM 54.0 °F 52.0 °F 93% 29.83 in 10.0 mi SSW 6.9 mph - 0.01 in   Mostly Cloudy
8:54 AM 55.9 °F 52.0 °F 87% 29.85 in 10.0 mi SSW 11.5 mph - N/A   Scattered Clouds
9:16 AM 57.0 °F 53.1 °F 87% 29.88 in 10.0 mi SSW 13.8 mph - N/A   Mostly Cloudy
9:54 AM 55.9 °F 53.1 °F 90% 29.86 in 10.0 mi SSW 17.3 mph - N/A   Mostly Cloudy
10:01 AM 55.0 °F 52.0 °F 89% 29.89 in 8.0 mi SSW 13.8 mph - N/A   Overcast
10:54 AM 59.0 °F 52.0 °F 78% 29.86 in 10.0 mi SW 10.4 mph - N/A   Scattered Clouds
11:54 AM 60.1 °F 52.0 °F 75% 29.86 in 10.0 mi SSW 10.4 mph - N/A   Clear
12:54 PM 61.0 °F 51.1 °F 70% 29.87 in 10.0 mi SSW 17.3 mph - N/A   Mostly Cloudy
1:54 PM 61.0 °F 52.0 °F 72% 29.85 in 10.0 mi SW 10.4 mph - N/A   Partly Cloudy
2:54 PM 61.0 °F 52.0 °F 72% 29.83 in 10.0 mi SW 10.4 mph - N/A   Clear
3:54 PM 59.0 °F 52.0 °F 78% 29.81 in 10.0 mi SW 8.1 mph - N/A   Mostly Cloudy
4:54 PM 59.0 °F 51.1 °F 75% 29.77 in 10.0 mi Calm Calm - N/A   Clear
5:54 PM 57.0 °F 52.0 °F 83% 29.71 in 10.0 mi North 6.9 mph - N/A   Clear
6:54 PM 59.0 °F 48.9 °F 69% 29.67 in 10.0 mi East 9.2 mph - N/A   Clear
7:54 PM 59.0 °F 48.9 °F 69% 29.64 in 10.0 mi East 10.4 mph - N/A   Clear
8:54 PM 57.0 °F 48.0 °F 72% 29.62 in 10.0 mi ESE 8.1 mph - N/A   Clear
9:54 PM 57.9 °F 46.0 °F 65% 29.59 in 10.0 mi East 11.5 mph - N/A   Clear
10:54 PM 59.0 °F 46.0 °F 62% 29.55 in 10.0 mi East 12.7 mph - N/A   Overcast
11:54 PM 59.0 °F 46.0 °F 62% 29.51 in 10.0 mi East 21.9 mph 33.4 mph N/A   Mostly Cloudy